Theta_e
358 357 356 350 343 339 337 340 344 345 346 347 346 341 339 338 338 338 337 337 338 339 340 341 341 342 342 342 341 341 342 344 344 345 346 348 350 351 350 350 352 354 355 354 354 353 354 355 356 356 356 356 356 356 357 356 356 358 357 355 352 351 353 353 355 358 356 354 357 358 357 359 360 359 356 357 364 362 359 365 367 365 366 365 360
357 356 353 347 342 339 339 341 345 347 347 348 346 342 339 339 337 338 337 338 340 340 341 341 341 342 343 342 343 342 343 344 345 346 347 347 348 348 348 349 349 350 352 354 355 354 354 354 355 356 356 357 357 357 356 356 357 359 357 355 353 353 354 353 355 359 357 355 357 358 358 359 359 359 357 357 364 365 362 366 368 365 365 365 363
355 352 349 345 342 342 343 346 348 349 350 349 347 343 340 339 337 339 340 341 340 341 341 341 341 342 343 344 344 345 345 345 345 347 348 349 349 348 347 347 346 347 348 350 351 353 353 354 354 354 355 356 355 356 356 357 358 358 359 358 357 356 355 352 353 358 357 354 356 359 359 359 357 359 359 357 363 366 365 365 365 365 364 363 363
352 350 348 345 344 345 348 349 350 351 350 349 347 345 342 339 338 340 342 342 340 340 341 341 341 343 344 345 346 346 347 347 347 348 349 350 350 349 348 347 347 346 347 347 348 349 350 351 353 354 355 356 356 356 357 356 357 358 359 359 358 357 356 353 352 354 356 354 354 355 358 359 360 360 359 358 362 365 366 365 363 363 363 363 362
351 349 348 346 346 348 350 352 351 351 349 348 346 345 343 342 341 341 344 344 343 342 343 343 342 343 344 345 346 347 348 349 349 349 350 350 350 349 348 348 348 348 347 347 348 348 348 349 351 352 354 355 357 357 356 356 357 357 358 359 358 358 357 355 353 353 353 353 352 352 357 361 362 361 358 357 360 363 365 364 363 362 362 361 360
354 351 350 350 351 351 352 353 353 353 352 350 347 346 345 345 345 344 345 346 346 346 345 345 344 342 343 344 345 346 347 348 349 349 349 349 349 349 348 348 349 348 348 348 348 348 348 348 349 349 351 353 355 356 356 357 358 358 358 359 358 358 358 356 355 353 353 354 353 352 357 362 365 364 360 359 360 361 363 364 362 361 361 360 359
357 355 354 353 353 353 351 353 353 353 353 352 350 348 348 349 348 346 347 347 348 347 347 346 344 344 345 345 345 346 346 346 348 348 348 349 349 348 348 348 348 348 348 348 348 348 347 346 347 348 348 350 351 353 356 357 358 357 358 359 358 358 357 356 356 355 354 355 354 352 353 357 364 365 360 358 359 360 360 361 362 361 360 361 360
356 356 355 354 354 354 352 351 353 354 354 354 353 351 351 349 348 347 348 348 348 347 347 346 345 346 346 346 346 347 347 346 346 347 347 347 348 348 348 348 348 347 347 348 348 347 347 346 347 347 347 348 349 351 355 357 358 358 358 358 358 359 358 356 355 354 353 353 353 352 350 353 361 364 360 356 357 360 358 357 359 360 359 360 360
356 355 355 356 355 354 354 354 355 354 354 354 352 351 350 349 348 349 349 348 347 346 346 346 346 346 345 346 346 346 346 346 346 346 346 347 347 347 347 347 347 346 346 346 346 347 347 347 347 347 347 348 348 350 353 355 356 357 358 358 358 359 360 358 356 354 353 353 352 351 352 353 356 358 358 358 360 362 360 358 359 359 358 360 360
357 356 356 356 355 356 356 355 355 353 352 351 350 349 349 349 348 348 348 348 347 347 347 346 346 346 346 346 346 346 346 345 346 345 346 346 346 346 346 345 346 345 345 346 346 346 347 347 348 347 348 348 348 348 350 352 353 354 356 356 355 356 359 359 358 355 353 355 354 352 353 354 353 352 355 359 360 361 362 360 360 359 358 358 358
356 355 355 355 354 354 353 351 351 350 350 349 349 348 348 348 348 347 347 347 346 346 346 346 346 345 345 345 345 345 345 344 345 345 345 345 345 345 345 344 345 345 345 345 345 345 346 346 348 348 348 349 348 349 349 349 351 351 353 353 352 351 353 356 358 356 353 353 353 352 352 353 353 354 355 354 355 359 362 362 360 360 359 358 358
351 351 351 350 350 350 348 348 349 349 349 349 349 348 348 348 347 346 346 345 345 345 344 345 345 345 344 344 344 344 344 343 344 344 343 343 343 344 343 343 343 344 345 345 345 345 346 346 347 347 348 348 349 350 350 350 349 349 349 350 350 350 351 355 357 356 353 352 352 352 352 354 355 356 355 353 356 360 363 363 360 359 358 359 360
348 348 348 348 349 348 348 349 349 349 349 349 348 347 347 346 345 345 345 344 343 344 343 344 344 344 344 344 343 343 343 343 343 343 342 342 342 343 342 342 342 343 344 343 343 345 346 346 347 347 348 348 348 349 350 350 351 352 350 350 350 349 350 352 355 355 354 353 354 354 355 356 357 357 355 355 358 358 360 362 360 357 358 359 360
348 348 348 348 348 348 348 348 349 348 348 347 347 346 345 344 344 343 343 343 343 343 343 343 343 343 343 343 343 343 343 342 342 342 342 342 342 342 342 342 342 343 343 343 343 344 345 346 346 346 346 348 348 349 350 350 351 352 353 353 352 351 350 350 352 354 354 354 355 356 356 357 358 358 355 355 355 355 357 360 360 360 360 360 360
348 348 348 348 348 348 348 348 347 346 346 345 345 344 343 343 343 342 342 342 342 343 342 342 343 342 343 343 343 343 342 342 342 342 342 342 342 342 342 342 342 343 343 343 344 344 345 345 346 346 347 347 348 349 350 351 352 352 353 355 354 353 352 353 353 354 354 354 354 355 356 356 357 357 356 356 355 353 356 359 361 360 358 357 357
348 348 348 348 347 347 346 346 345 345 344 343 343 342 342 342 342 342 342 342 342 342 341 342 342 342 342 342 342 342 342 342 342 341 342 342 341 341 342 342 343 344 343 344 345 345 346 345 345 347 347 347 347 348 347 349 351 352 354 356 355 352 353 354 355 354 354 354 354 355 355 355 355 356 357 357 354 353 356 359 358 357 355 354 355
346 346 346 345 345 344 344 344 344 343 343 342 342 341 341 341 341 341 342 341 341 342 341 341 341 341 341 342 342 342 342 342 342 342 342 342 341 342 343 343 343 343 344 344 345 346 346 345 345 346 347 348 348 347 346 347 348 349 352 353 351 351 352 353 354 355 355 355 355 355 355 355 355 356 356 356 354 354 355 354 350 349 351 353 353
344 344 343 343 342 342 342 343 343 342 342 341 341 341 340 340 341 341 340 341 341 341 340 340 340 340 341 341 341 341 341 342 341 341 342 342 341 342 343 343 343 343 342 342 344 345 345 345 344 344 346 347 346 346 347 346 347 348 350 350 349 350 351 351 352 354 354 354 354 354 355 355 354 355 355 354 354 353 353 353 350 349 351 354 355
342 342 341 341 341 341 341 341 342 341 340 340 340 340 340 340 340 340 339 340 339 339 339 339 339 339 339 339 340 340 341 341 341 341 342 341 341 342 343 344 345 343 341 342 344 344 343 344 345 344 344 344 344 345 346 345 346 347 348 349 350 350 350 350 351 353 354 355 354 354 355 355 354 355 355 354 355 352 352 354 355 354 354 354 355
340 340 340 340 340 340 340 340 340 339 339 339 339 339 339 339 339 339 338 338 338 338 338 338 338 338 339 339 340 339 340 341 341 342 342 342 342 342 342 344 344 342 340 342 344 342 341 344 345 344 344 343 343 344 344 344 345 346 346 348 350 350 349 350 352 353 355 354 352 352 354 355 356 356 354 354 355 354 352 354 355 355 355 353 353
339 339 338 339 338 339 339 338 339 338 338 338 338 338 339 338 338 338 337 337 337 337 337 337 337 338 338 338 339 339 340 340 340 340 341 340 341 341 341 342 342 341 340 341 343 342 341 342 342 344 345 344 343 344 344 343 344 345 345 347 349 349 349 350 352 352 353 353 351 352 354 356 356 355 355 355 357 355 354 354 354 355 353 352 352
337 337 337 337 337 337 337 337 337 337 336 337 337 337 337 337 336 336 336 336 336 336 336 336 336 337 337 338 338 339 339 339 339 340 340 340 340 340 340 340 340 340 341 341 342 341 341 341 342 344 345 344 344 344 344 343 344 344 344 345 347 349 349 350 350 351 351 351 352 354 355 356 357 357 355 356 356 355 355 354 354 354 352 352 352
336 336 336 335 335 336 336 336 336 336 335 336 335 335 336 335 335 335 335 335 335 335 336 336 336 336 337 336 337 338 339 340 340 340 340 340 340 340 340 339 339 339 339 340 339 339 340 341 342 342 342 342 343 343 343 344 344 344 344 344 346 348 348 349 348 348 349 352 354 354 353 354 356 355 354 354 354 354 354 354 354 354 353 352 352
334 334 334 334 334 334 334 334 334 334 334 334 334 334 334 333 333 334 333 334 334 335 335 335 336 336 336 336 337 338 339 341 342 342 341 341 341 340 340 339 338 338 337 338 338 338 338 339 340 341 341 342 342 342 344 345 345 345 344 344 345 346 347 349 348 348 350 352 353 354 354 355 357 355 354 354 354 353 353 353 353 353 353 352 351
333 332 332 332 332 332 333 332 332 332 332 332 332 333 332 332 333 333 333 334 334 334 335 335 335 335 336 337 338 339 340 342 342 342 341 340 339 338 337 336 337 336 335 335 335 335 336 336 337 339 340 341 341 342 344 345 345 345 345 346 346 347 346 346 347 349 350 350 352 354 352 350 351 351 350 350 350 349 348 349 348 348 348 348 345
331 331 331 331 330 330 331 331 330 330 330 330 331 331 331 332 333 333 334 334 334 334 334 335 334 335 336 337 338 339 339 340 339 339 337 336 335 334 333 333 333 333 333 333 333 334 335 336 336 337 339 341 342 343 343 344 344 345 346 346 345 345 346 347 347 348 349 350 352 351 344 338 339 340 341 342 342 341 341 342 341 339 338 339 337
329 329 329 329 329 329 329 329 329 330 330 331 332 332 332 333 333 333 334 333 334 334 334 334 335 336 337 337 337 336 336 335 335 334 333 332 330 329 327 326 326 327 329 331 334 335 337 338 338 337 338 341 342 342 343 344 344 345 346 346 344 344 346 346 346 348 349 349 348 344 337 333 334 334 334 335 334 333 334 336 334 330 329 331 328
328 328 328 328 329 329 329 329 330 330 331 332 332 332 333 333 333 334 334 333 334 334 334 335 335 335 335 334 332 331 331 330 330 330 328 326 324 321 320 319 319 321 325 329 333 335 337 340 340 339 339 340 342 342 343 344 343 344 345 345 344 344 344 345 344 344 343 342 339 334 331 331 331 330 330 329 329 329 330 331 330 327 326 327 324
327 327 327 328 328 329 329 330 330 331 331 332 332 332 333 333 333 334 334 334 333 333 333 334 332 331 329 328 327 327 326 326 326 325 324 323 322 321 319 319 319 319 321 324 328 329 331 337 342 342 340 340 342 343 343 343 342 340 339 338 338 339 339 338 336 335 333 332 330 329 327 327 327 326 326 325 325 325 325 326 325 325 325 325 322
327 327 328 328 328 329 330 330 330 331 331 332 333 333 333 333 333 333 333 333 332 332 331 329 327 325 324 324 324 323 323 323 323 323 323 324 324 324 324 324 322 322 321 320 320 320 325 335 343 344 342 343 344 344 343 342 338 334 333 333 333 333 332 331 329 329 328 328 327 325 324 325 324 324 323 323 323 323 322 323 323 323 323 323 322
327 327 328 328 328 329 329 330 330 331 332 333 333 334 334 334 334 334 333 333 333 331 328 326 324 323 323 322 323 322 321 321 322 323 324 325 325 327 327 326 325 326 325 320 318 321 328 337 343 343 343 343 344 341 339 337 333 331 330 330 330 330 329 328 327 327 327 326 325 325 324 324 324 324 323 322 322 322 322 322 322 322 322 322 321
326 327 327 327 328 329 329 330 330 332 333 334 335 335 335 334 335 335 334 332 330 328 325 324 324 324 324 323 322 321 320 321 323 324 325 326 327 328 328 328 329 331 328 322 323 330 338 342 341 339 337 336 335 333 332 330 329 328 328 328 327 326 326 326 326 326 325 325 325 325 325 325 325 324 324 323 323 323 323 322 322 321 321 320 319
325 326 327 327 328 328 329 330 330 331 334 335 336 337 336 336 336 336 333 330 329 327 325 324 324 324 323 322 321 321 321 322 324 325 326 327 328 329 329 329 330 331 328 325 330 337 339 336 334 333 330 328 327 326 325 325 324 324 324 324 323 324 324 325 325 325 325 325 325 325 325 325 325 326 325 324 324 324 323 323 322 322 321 320 319
325 326 327 327 328 328 329 329 330 333 335 335 336 337 336 335 335 333 331 330 330 328 327 325 323 322 322 321 321 321 322 323 324 325 326 326 327 327 328 328 328 328 328 328 331 332 330 328 327 326 324 324 323 322 322 322 322 322 322 322 322 322 323 324 324 324 324 324 324 323 323 323 324 325 324 323 323 323 322 322 322 321 320 319 318
325 325 326 326 327 328 328 329 331 333 335 334 334 334 333 332 331 330 329 329 329 328 326 324 322 322 322 321 321 321 321 322 323 324 324 324 324 325 326 326 325 325 325 325 325 324 324 324 323 322 322 322 322 322 322 321 321 322 322 322 321 322 322 322 323 323 323 323 323 322 322 321 322 322 322 322 322 321 321 321 320 320 319 318 317
325 324 325 325 326 327 329 330 330 332 333 333 332 331 330 330 329 328 327 326 325 324 323 322 321 321 321 321 321 320 320 321 322 322 322 323 323 323 324 324 324 323 323 323 322 321 321 321 321 321 321 320 320 321 321 321 321 321 321 321 321 321 321 321 322 322 322 322 322 321 321 320 319 319 319 320 320 320 320 320 319 319 318 317 317
323 324 324 325 326 327 328 329 330 331 331 331 330 329 328 328 327 326 325 324 323 321 320 320 320 321 321 321 321 320 320 320 320 320 321 321 321 322 322 322 322 322 322 322 321 320 320 320 320 319 319 319 319 320 320 320 320 320 320 320 320 321 321 320 320 321 322 322 321 321 320 320 319 318 318 319 319 319 319 319 319 318 317 317 317
322 323 324 325 326 327 328 329 330 331 330 329 328 328 326 325 324 323 322 321 320 319 319 318 318 319 320 320 320 320 320 319 320 320 320 320 320 321 321 321 321 321 321 321 320 320 319 320 319 319 319 320 319 319 319 319 319 319 319 318 318 318 318 317 318 319 320 320 320 320 321 321 320 320 320 320 319 319 319 319 319 318 318 318 318
322 324 324 325 326 327 328 329 330 329 328 327 326 325 325 324 323 321 321 320 319 319 318 317 317 318 319 319 319 319 319 319 319 319 319 319 319 320 320 320 320 319 319 319 318 318 318 318 318 317 318 319 319 319 319 319 319 319 319 319 318 318 318 318 318 319 319 319 320 321 321 321 322 321 322 321 320 320 320 320 319 319 319 319 319
322 324 324 325 326 327 328 329 328 327 327 326 325 324 323 323 321 320 320 319 319 318 317 316 316 316 317 318 318 318 318 318 318 318 318 318 318 318 318 319 319 318 317 317 316 316 316 316 316 316 316 317 317 318 318 318 318 318 318 319 319 319 320 320 320 320 320 320 320 321 321 321 321 321 322 321 320 320 320 320 320 319 320 319 319
323 324 325 325 326 326 327 326 325 324 324 323 323 323 322 321 320 320 319 318 318 317 316 316 316 316 316 317 317 318 318 318 318 317 317 318 318 317 317 318 317 317 316 316 316 316 316 316 316 316 317 317 317 317 318 318 319 318 318 318 318 319 318 319 319 319 319 319 319 319 320 320 320 320 320 319 319 318 318 318 318 318 318 318 317
323 323 324 324 324 324 324 324 323 323 322 322 322 321 320 320 320 319 318 318 317 316 316 316 316 315 316 316 316 317 317 318 318 317 317 317 317 317 316 316 316 317 316 316 316 316 316 316 316 316 317 317 317 317 318 318 318 319 319 318 318 318 318 318 318 318 317 317 317 317 318 318 318 318 318 318 318 317 317 317 317 317 316 316 316
322 322 322 322 322 322 322 321 321 321 321 321 320 319 319 319 319 318 318 317 316 316 316 316 316 316 316 316 316 316 317 317 317 317 317 317 317 317 316 316 316 317 316 316 316 316 316 316 316 316 317 317 317 317 317 317 317 318 317 317 317 317 317 317 316 316 317 317 317 317 318 318 318 318 317 317 317 317 317 316 316 316 315 315 315
321 321 321 320 321 321 320 320 320 320 320 320 319 318 318 318 318 318 318 317 316 316 316 316 316 316 316 316 316 317 317 317 317 317 317 317 317 317 318 317 318 317 317 317 317 316 316 316 316 316 317 317 316 316 316 316 316 316 316 316 316 316 316 316 316 316 316 317 316 317 317 316 316 316 316 316 316 315 315 315 315 315 314 314 314
320 320 319 319 319 319 319 319 319 319 319 319 319 318 319 319 318 318 317 317 317 316 316 316 316 316 316 317 317 317 317 318 318 318 318 317 317 317 317 317 317 316 316 316 316 315 315 315 314 314 314 313 313 313 313 313 314 314 315 316 316 316 317 317 316 316 316 315 315 315 315 315 314 314 314 314 314 315 314 314 314 314 314 315 315
319 319 319 319 318 319 318 318 318 318 318 318 318 319 319 319 319 318 317 317 317 317 317 316 316 316 316 317 317 317 317 318 318 318 318 317 316 316 315 315 314 314 314 314 313 313 313 312 312 311 311 310 309 309 309 309 309 309 310 312 313 314 314 315 315 315 315 315 314 314 314 314 314 314 314 314 314 314 314 314 314 314 314 314 314
318 318 318 318 318 318 318 318 318 318 318 318 318 318 318 319 320 319 318 318 318 317 318 317 317 317 317 316 316 317 317 317 317 317 316 315 315 315 314 313 312 312 311 311 311 311 310 310 310 310 309 309 308 308 308 307 306 306 306 307 307 308 309 311 312 314 315 315 314 314 314 313 313 313 313 314 314 314 314 314 314 314 314 313 313
317 317 317 317 317 317 317 317 318 317 317 317 317 317 317 319 319 319 319 319 318 318 318 318 317 317 316 316 316 316 316 315 315 315 314 314 314 313 313 312 312 311 311 310 309 309 309 308 308 308 308 308 308 308 307 306 306 305 305 305 305 306 307 308 309 311 312 313 314 314 314 314 314 314 313 313 313 313 313 313 313 313 312 311 311
317 317 317 317 317 317 317 317 317 317 317 316 316 316 316 317 318 318 319 319 319 318 319 318 318 317 316 315 315 315 315 315 314 314 314 314 314 314 313 313 312 312 311 310 309 308 308 307 306 306 307 307 307 306 305 305 304 304 304 304 304 304 305 305 307 309 311 312 312 312 313 313 313 313 313 313 313 313 313 312 312 311 311 311 311
318 318 318 318 317 317 316 316 315 315 315 315 314 315 315 316 317 317 318 318 318 318 318 318 317 317 316 315 315 315 315 315 315 315 315 315 314 314 314 313 312 311 311 310 309 308 308 307 306 306 306 306 306 305 304 303 303 303 302 303 303 303 303 303 304 307 309 311 311 311 311 312 311 311 311 312 312 312 312 311 311 310 310 311 311
319 319 319 318 318 317 316 316 315 314 314 314 314 315 316 317 317 316 316 316 316 316 316 316 316 316 316 316 316 316 316 316 315 315 315 314 314 313 313 312 311 311 310 309 309 309 308 308 308 307 306 306 305 304 303 302 302 302 302 301 301 300 300 301 302 305 308 310 310 310 311 311 311 311 311 311 311 311 310 310 311 311 311 311 311
Wind_Speed
11 11 11 10 10 10 10 10 10 9 10 10 10 11 12 12 12 12 12 13 14 15 16 17 18 18 18 19 19 20 20 21 21 21 21 20 21 22 21 20 20 20 21 22 22 21 22 22 22 22 21 22 23 22 20 22 24 21 22 25 28 28 25 21 16 13 17 21 18 15 16 16 16 18 18 16 14 15 14 13 13 15 14 13 16
12 12 11 11 11 11 11 10 11 11 11 12 12 12 13 13 13 13 14 14 15 16 17 18 18 18 19 20 20 20 21 21 22 23 23 22 22 22 22 21 21 21 21 22 22 22 22 23 24 23 22 22 23 23 23 24 23 20 22 25 25 25 25 24 20 14 15 20 20 18 18 17 18 19 19 18 15 14 14 14 13 14 14 14 15
12 11 11 11 12 12 12 12 12 13 13 13 14 14 15 14 13 14 14 15 15 16 17 18 19 19 20 21 21 21 22 22 22 23 23 24 24 23 23 23 22 22 22 22 22 22 23 24 24 23 23 23 24 24 23 23 24 22 22 22 21 24 26 25 22 17 16 20 21 19 19 20 23 23 19 18 16 15 15 16 15 14 15 16 15
11 11 12 12 13 13 14 14 14 15 15 15 15 16 16 15 14 15 15 16 17 18 18 19 20 20 21 22 22 22 22 22 23 23 23 24 24 24 24 24 24 23 23 23 22 23 23 24 24 23 23 23 24 24 23 22 23 24 23 22 22 26 29 29 26 20 16 18 22 22 20 20 22 22 20 19 17 16 16 16 17 17 16 17 16
11 12 13 14 14 15 16 16 16 16 17 17 17 17 17 16 16 16 16 17 18 19 19 20 21 22 22 22 22 22 22 23 23 23 24 24 24 25 24 24 25 25 24 24 23 23 24 24 25 24 23 23 23 23 23 22 21 22 23 23 23 22 23 27 30 26 20 19 23 24 21 19 19 19 19 20 18 17 17 17 17 18 17 17 17
12 13 13 14 15 16 17 16 17 17 18 18 18 17 17 17 17 17 17 18 19 19 19 20 21 23 23 23 23 23 23 23 24 24 25 25 25 25 25 25 26 26 25 25 25 25 25 25 25 25 24 25 26 24 22 21 21 21 22 23 23 21 19 23 28 28 25 21 22 24 21 19 17 16 18 20 19 18 17 17 17 17 17 17 16
11 12 13 14 15 16 17 17 17 17 17 17 17 16 16 16 17 17 17 18 19 20 21 21 22 22 22 22 23 24 24 24 24 25 25 25 25 26 26 26 26 27 26 26 26 27 27 27 26 26 26 26 27 26 23 22 22 22 22 22 22 21 21 22 23 24 23 20 20 23 24 22 18 17 21 22 20 19 18 17 16 17 18 18 17
11 12 13 14 15 16 16 17 16 16 16 16 15 15 16 16 17 17 18 19 20 21 22 22 22 21 21 22 23 23 24 24 24 25 25 25 25 26 27 27 27 28 27 26 27 27 28 28 27 27 28 28 28 27 24 22 21 21 21 22 22 21 22 21 21 23 23 20 20 24 27 25 18 15 19 21 21 21 21 20 18 18 19 19 19
12 12 13 13 13 14 14 14 14 14 14 14 14 15 15 16 16 17 18 20 22 22 22 22 22 22 22 22 23 23 23 24 24 24 24 24 24 25 26 26 26 27 27 27 27 27 27 28 28 28 28 28 29 30 28 26 24 23 20 19 20 21 20 18 20 23 23 19 20 23 23 21 19 17 17 22 24 22 21 21 19 19 20 20 20
10 10 11 11 11 11 11 12 12 13 13 13 14 14 15 16 17 18 20 21 22 21 21 21 21 21 22 22 23 23 23 24 24 25 25 25 25 25 26 26 26 27 27 27 27 27 27 28 28 28 29 30 31 32 33 32 32 30 26 23 22 21 19 18 20 21 19 17 19 22 19 17 21 25 23 23 25 22 20 21 19 18 19 18 18
7 8 9 9 9 9 10 11 12 13 13 14 14 15 16 17 17 19 20 21 21 21 21 21 21 21 22 23 23 24 24 24 24 25 26 26 27 27 27 27 27 27 27 28 27 27 27 27 28 28 29 29 31 32 34 35 36 36 36 33 31 28 24 21 20 21 20 18 19 21 20 20 25 28 25 23 26 24 22 22 20 17 17 17 14
6 7 8 9 9 10 11 12 12 13 14 14 15 16 16 17 18 19 20 21 21 21 21 21 22 22 22 23 24 25 25 25 25 26 27 27 27 28 28 28 28 27 27 28 28 26 26 27 27 27 27 28 28 29 30 33 35 38 38 37 36 36 33 28 25 25 24 22 21 21 24 26 25 25 26 26 27 24 21 21 24 22 19 19 17
6 8 9 9 10 11 12 12 13 14 15 15 16 17 17 19 20 20 21 21 21 21 22 22 22 23 23 24 25 25 26 25 25 26 28 28 29 28 28 29 29 28 28 29 29 27 26 26 27 27 27 27 27 28 28 29 31 33 35 36 37 38 38 38 36 33 29 27 24 25 29 27 22 23 28 28 24 21 19 21 25 25 22 23 22
8 9 10 11 11 12 12 13 14 15 16 16 17 18 20 20 21 21 21 21 22 22 23 23 23 23 23 24 25 25 26 25 25 26 27 28 29 29 29 31 31 30 30 30 30 29 28 27 28 28 27 26 26 26 27 28 27 27 28 30 33 36 37 40 42 40 37 33 30 30 31 29 25 26 29 29 25 23 23 23 25 26 26 24 22
9 10 11 11 12 13 14 15 16 17 18 19 19 20 21 21 22 22 21 21 22 23 23 23 23 24 24 24 25 25 26 25 26 27 28 28 29 29 30 30 30 30 31 31 31 31 29 27 28 29 29 29 28 27 26 25 24 23 22 23 27 32 33 35 38 41 40 37 36 36 35 33 30 29 31 32 31 29 26 25 25 28 30 25 20
11 12 12 13 13 14 16 17 18 18 19 20 20 21 22 22 22 22 22 22 23 23 23 24 23 24 24 24 25 26 26 26 27 28 29 29 29 29 28 28 28 27 28 29 29 29 28 27 28 29 29 30 30 31 30 27 24 22 21 22 25 28 28 29 32 37 38 38 39 40 39 38 34 31 31 32 31 30 26 19 18 21 22 20 15
12 13 13 15 16 16 17 19 20 20 20 21 22 22 23 23 23 23 22 23 23 23 24 24 24 24 24 25 26 26 26 27 28 29 30 29 29 27 25 25 27 26 27 29 29 28 28 29 30 29 28 29 31 32 32 30 27 24 23 25 27 26 25 26 27 31 35 38 39 39 39 40 38 35 33 33 32 32 26 16 15 17 14 11 9
13 14 15 17 18 18 19 20 20 21 21 22 22 23 23 23 23 23 23 23 24 24 24 24 25 25 25 25 26 27 28 29 30 31 31 30 30 28 25 24 26 28 30 32 30 28 28 31 34 34 32 31 32 32 31 30 28 27 27 29 27 25 26 26 25 25 30 34 37 38 38 39 39 38 36 35 34 34 30 22 20 22 18 13 11
15 16 17 19 19 20 20 20 21 22 22 23 23 24 24 24 24 24 23 23 24 25 24 25 25 25 25 26 27 27 28 29 30 31 31 30 30 27 24 23 24 29 32 31 29 31 30 29 32 35 35 35 36 34 32 31 28 27 29 29 26 26 28 27 25 23 23 26 31 35 36 38 40 39 38 37 35 34 33 29 24 24 24 20 16
17 18 19 19 20 20 21 21 22 23 23 24 24 24 24 24 23 23 23 24 24 25 24 24 25 25 25 26 26 26 27 28 28 28 28 28 27 26 24 22 25 31 33 28 28 33 33 28 28 31 34 36 37 36 35 34 32 31 31 28 26 27 27 26 25 23 21 21 25 29 29 29 32 35 37 38 38 37 35 32 29 29 30 26 23
19 19 20 20 21 21 22 22 23 23 23 23 23 23 23 23 23 22 23 23 24 24 24 25 26 26 26 25 25 26 27 28 28 28 27 27 27 28 27 26 27 31 30 26 26 29 30 29 28 28 29 31 32 34 35 36 36 36 35 31 29 27 24 21 21 22 22 22 23 24 23 21 24 28 29 31 35 38 37 33 31 33 33 31 28
20 20 21 21 22 22 22 23 23 23 23 23 23 23 23 22 22 22 22 23 24 25 26 25 26 27 26 26 26 25 25 26 28 28 28 28 29 30 31 32 31 29 26 25 27 28 28 29 27 26 27 28 30 31 32 34 36 38 38 36 33 29 25 21 20 21 21 21 21 22 22 21 21 22 23 26 30 33 33 32 33 34 35 36 34
20 21 22 22 22 22 23 23 23 22 22 22 23 23 23 22 22 22 23 23 24 25 25 25 25 26 26 25 25 24 23 24 26 27 28 29 30 31 31 32 33 31 30 31 32 30 28 27 27 29 30 28 28 29 29 30 32 36 38 38 35 33 30 27 26 25 23 20 20 22 23 23 22 21 23 27 29 29 28 28 31 34 35 38 38
21 22 22 22 22 22 22 23 23 23 23 23 22 23 23 22 22 23 23 23 23 23 24 23 22 23 23 24 24 23 22 21 22 24 26 27 28 28 30 32 33 33 34 34 32 30 30 28 28 30 30 27 27 28 27 27 29 32 33 34 34 34 32 28 26 26 24 21 21 23 24 24 23 23 25 26 25 26 25 23 25 29 31 31 30
21 22 22 22 22 22 23 23 24 23 22 22 22 22 22 21 21 21 21 21 21 21 22 21 21 21 21 21 21 21 21 21 20 21 24 25 24 25 28 31 31 32 33 34 31 31 33 32 31 31 29 27 26 25 24 25 27 29 30 31 32 32 30 27 26 25 22 21 22 21 19 18 18 20 20 19 17 16 17 17 18 19 19 19 18
22 22 22 22 23 23 23 23 23 22 22 21 21 20 20 19 20 20 20 20 19 19 20 21 21 20 18 18 20 22 22 23 23 23 24 24 22 22 24 25 27 28 30 31 31 31 32 33 34 34 30 26 25 24 22 23 24 26 28 31 32 30 29 28 26 23 23 24 22 16 10 8 9 10 10 10 9 7 9 12 12 9 10 13 10
22 23 23 23 23 23 23 22 22 21 21 20 20 19 18 19 20 20 20 20 19 19 20 20 19 18 17 18 20 21 22 24 24 23 22 21 20 20 22 25 27 28 26 25 25 26 27 27 29 30 27 25 25 25 23 22 22 22 23 26 27 26 26 25 24 23 24 22 17 12 8 6 5 6 7 7 8 7 7 9 10 11 11 13 13
22 22 23 23 22 22 21 21 21 21 20 20 20 20 19 20 21 22 22 21 20 20 20 19 19 18 19 20 20 19 21 22 21 19 20 22 24 26 26 25 25 25 23 20 18 19 20 19 18 20 20 21 22 23 24 25 22 17 16 16 16 16 18 18 18 16 14 11 10 10 9 8 10 11 11 12 13 11 10 12 14 15 15 16 18
22 22 22 21 21 21 20 20 20 20 20 21 21 21 21 22 23 23 23 22 21 20 20 21 20 19 17 16 15 16 19 21 21 23 26 28 29 30 30 28 26 24 21 18 18 20 19 15 12 12 13 15 16 18 19 18 12 6 5 5 4 5 6 6 6 7 9 12 14 14 14 15 16 17 18 17 15 13 14 16 17 16 17 18 18
22 21 20 20 20 20 20 20 21 21 21 22 23 22 21 21 22 22 22 23 23 23 21 18 16 13 12 12 12 15 20 24 27 29 29 28 27 27 29 29 29 27 24 20 18 18 16 13 11 12 12 13 14 13 12 9 6 7 6 7 7 7 8 10 12 14 16 18 19 20 20 18 16 17 19 19 17 15 16 16 15 16 18 20 19
21 20 20 20 20 19 19 20 21 23 23 22 21 19 19 20 20 20 19 19 19 17 14 11 10 10 11 14 17 19 22 25 28 27 26 25 24 24 26 26 25 23 19 14 12 12 12 11 11 10 9 8 8 8 7 7 9 10 11 11 10 9 11 14 16 17 17 18 19 19 18 18 18 18 19 20 19 18 17 17 17 18 19 19 19
20 19 20 20 20 19 19 21 22 23 21 18 16 15 17 19 18 14 10 8 9 8 8 10 10 11 12 14 17 20 21 21 22 21 21 21 19 19 20 19 17 14 11 9 10 10 10 7 4 5 7 8 9 10 12 12 13 13 13 12 12 13 15 17 18 18 18 18 19 19 19 19 20 20 20 21 20 19 19 19 19 20 20 19 19
20 20 20 20 20 19 20 22 23 20 17 16 15 15 15 14 12 8 6 7 7 6 7 10 11 11 12 14 16 17 17 16 15 15 14 13 12 12 14 13 8 2 7 10 6 4 7 10 12 15 16 16 15 16 17 18 19 20 19 18 17 16 17 19 21 21 20 19 18 19 19 19 21 23 23 22 22 21 21 21 20 20 20 18 18
20 20 20 20 20 19 20 23 22 17 13 14 15 14 11 9 8 8 8 8 7 6 7 11 13 13 14 16 17 17 16 16 15 13 13 15 15 17 21 25 24 20 17 16 16 17 17 18 19 20 20 20 20 21 22 23 25 25 24 23 22 18 17 19 22 22 22 22 21 20 18 18 21 23 22 20 19 18 18 18 17 17 17 16 16
19 20 19 18 17 17 18 21 21 15 11 12 12 11 10 9 8 9 9 9 9 9 10 13 15 15 16 18 19 21 22 22 22 22 22 23 25 28 29 29 30 30 30 30 29 27 25 24 24 25 24 24 24 24 24 25 26 25 25 26 24 20 18 21 22 20 18 19 21 20 18 17 19 21 20 19 18 17 17 17 17 17 17 16 16
18 18 18 16 16 16 17 19 18 13 10 10 10 9 10 10 9 10 10 10 11 12 13 15 17 17 18 19 21 24 27 28 29 30 30 29 30 32 30 26 26 27 28 28 29 30 30 28 25 25 26 26 26 26 26 26 25 24 25 27 26 22 20 21 22 21 20 21 22 23 21 20 22 24 23 21 20 18 16 16 16 16 16 15 15
17 17 17 16 16 17 17 17 15 12 9 10 9 9 11 13 12 12 12 13 14 16 17 19 19 19 20 21 21 23 27 30 32 34 34 34 35 33 28 25 26 27 26 25 26 29 30 27 24 25 27 27 26 26 26 26 26 25 25 26 25 24 23 22 22 23 22 22 23 23 22 21 22 23 22 19 17 16 15 15 15 14 14 14 14
16 16 17 17 17 16 15 13 11 9 9 10 11 11 12 13 13 13 15 16 18 19 20 21 21 20 21 22 22 23 26 30 31 32 33 34 34 32 29 29 29 28 27 28 29 30 31 28 26 26 27 26 25 25 26 26 25 24 25 26 26 26 26 27 27 27 27 26 25 24 23 21 19 18 17 16 15 14 14 13 13 13 13 12 11
16 16 15 15 14 13 11 9 9 9 10 10 11 12 12 13 14 16 17 17 17 18 20 23 24 22 21 23 24 25 26 27 26 28 30 31 31 30 29 29 29 29 29 30 30 30 30 30 30 30 29 26 25 24 24 24 25 24 24 25 25 23 22 23 25 26 27 27 24 21 18 17 16 15 15 15 14 13 13 12 12 12 11 10 9
15 14 12 12 12 10 9 9 11 12 13 13 13 13 14 16 16 17 18 17 18 20 23 25 25 25 25 25 24 24 24 24 25 27 29 29 29 31 31 30 30 30 30 30 30 31 31 31 32 32 31 30 28 26 25 25 26 27 27 26 24 22 22 21 20 19 19 19 18 16 14 14 14 14 14 14 13 13 13 12 11 10 10 10 10
14 12 10 11 11 11 12 14 15 16 17 17 16 16 17 19 17 17 18 20 22 25 26 26 26 27 28 27 25 25 25 26 27 28 28 28 29 31 31 30 29 30 30 29 29 30 30 30 30 30 30 29 29 28 27 25 24 24 25 26 25 24 24 22 20 18 18 18 18 16 15 14 13 13 13 13 13 12 12 11 11 11 10 10 10
12 12 11 12 14 15 15 16 18 18 18 18 18 19 19 19 18 18 21 24 26 26 24 23 24 27 28 29 28 28 28 28 28 28 28 28 30 31 30 29 27 26 25 25 25 25 26 27 27 28 28 27 27 27 27 26 25 24 24 24 24 24 23 22 21 20 20 19 18 16 15 14 13 13 13 13 13 12 11 10 10 10 9 9 9
12 13 14 15 17 17 19 20 21 20 20 20 21 21 21 20 19 20 22 25 26 26 24 23 23 26 28 29 29 29 30 30 29 28 27 28 28 28 27 26 24 23 22 22 22 22 23 25 26 27 27 27 27 27 26 25 25 25 25 24 24 22 21 19 19 17 16 16 14 13 12 11 11 11 11 10 10 10 9 9 9 8 8 8 8
13 15 16 16 16 17 19 21 22 22 22 21 22 23 22 22 22 22 23 23 24 24 23 22 22 23 25 27 28 29 29 28 27 26 27 27 26 25 23 22 20 20 21 21 22 23 25 27 28 27 27 26 25 25 24 23 22 21 20 20 19 18 16 15 13 12 11 10 10 10 10 9 9 9 9 9 8 9 8 8 8 7 7 7 7
16 16 17 18 17 17 19 21 22 22 22 22 22 23 23 22 22 23 24 24 24 24 23 23 22 22 22 23 24 27 28 26 24 23 23 23 22 21 20 20 19 19 20 22 24 26 26 26 25 25 24 23 22 21 21 19 18 16 14 14 13 12 12 11 10 9 8 8 8 9 9 8 8 8 8 7 7 7 7 7 7 7 7 7 7
18 19 18 19 19 19 20 22 22 22 22 22 22 22 21 21 21 22 22 23 23 23 23 23 22 22 22 20 20 23 25 24 23 21 21 20 20 20 19 19 19 20 20 21 22 24 24 23 22 22 21 21 21 20 19 19 18 17 15 14 12 12 11 10 10 10 9 8 8 8 8 8 9 8 8 7 7 7 8 7 7 7 6 6 6
20 20 19 19 19 20 21 21 21 21 22 23 22 21 20 20 21 21 21 21 21 21 21 20 19 20 20 18 17 18 19 19 19 19 19 19 19 19 18 19 19 20 20 19 19 20 20 19 19 19 19 19 19 19 18 18 18 17 17 16 14 13 12 12 11 11 11 10 10 9 8 8 9 8 8 8 7 7 7 7 6 6 6 5 5
22 21 21 21 21 20 21 21 20 21 23 24 22 21 21 21 21 20 20 19 19 19 19 18 17 17 17 16 16 16 16 17 17 18 18 18 18 18 18 18 17 18 18 19 19 19 19 18 18 18 18 18 18 18 18 18 18 17 17 16 14 12 11 11 12 12 12 11 10 10 9 9 8 8 7 7 7 6 6 6 5 5 5 4 4
21 20 20 21 21 21 21 21 22 23 24 24 23 22 23 23 21 19 19 21 21 21 20 19 18 16 16 16 16 16 16 17 17 17 17 17 17 17 17 17 17 17 17 18 18 18 19 19 20 20 19 19 19 18 18 18 18 17 16 15 12 11 10 10 12 13 12 10 9 9 9 9 8 8 7 7 6 6 5 5 4 4 4 4 4
20 20 19 20 21 21 23 25 25 24 24 24 23 22 21 19 17 16 18 20 21 20 19 19 17 16 16 16 15 16 16 16 16 16 16 16 16 16 16 16 17 17 17 17 17 17 18 18 19 19 19 18 18 18 18 18 18 16 15 13 11 11 10 10 11 13 13 11 10 9 9 8 8 7 6 6 6 5 5 4 4 4 4 3 3
19 19 18 17 17 18 20 22 22 21 21 21 19 18 17 16 15 16 17 17 17 17 17 16 15 15 15 15 15 15 15 15 15 15 15 15 15 16 16 16 16 16 16 17 17 17 17 17 17 17 17 17 17 17 17 17 16 14 12 12 11 11 12 12 12 14 14 12 9 8 8 8 7 6 6 5 5 5 4 4 3 2 2 3 2
Wind_Direction
193 198 205 216 221 218 214 211 210 218 224 229 246 270 283 286 288 289 289 288 286 285 284 282 280 278 276 276 275 272 270 269 269 268 266 264 262 264 266 266 264 261 261 261 259 258 255 253 252 250 252 252 251 250 246 244 243 237 235 239 244 248 248 247 250 247 244 247 245 238 235 235 236 234 234 229 223 226 220 204 204 207 204 205 204
198 203 208 213 214 216 221 222 221 226 231 237 251 269 280 282 283 283 282 282 282 282 283 283 281 278 276 275 273 272 270 267 267 266 265 264 263 264 266 265 264 262 261 261 260 259 257 255 254 253 252 252 250 250 248 246 245 239 234 237 240 244 244 246 252 253 245 243 242 238 234 237 241 237 234 229 221 215 210 200 197 199 199 198 198
205 210 212 215 215 218 225 228 228 231 236 243 253 269 279 278 276 274 273 275 278 280 282 284 284 281 277 275 272 271 270 267 266 265 265 265 264 264 265 265 266 264 262 262 261 260 259 257 256 255 253 252 251 247 245 245 247 246 240 234 235 241 244 247 252 256 254 248 242 235 229 230 233 233 236 235 223 211 206 202 199 197 197 198 198
211 214 215 219 222 226 230 230 231 234 240 248 257 267 274 270 268 266 264 269 276 279 281 284 284 281 276 273 270 268 268 266 266 265 264 265 265 264 265 265 266 266 264 264 264 262 262 261 259 257 254 254 254 249 244 242 244 247 244 237 237 243 245 245 246 251 261 260 251 242 232 227 228 229 234 237 226 212 207 205 203 200 198 200 202
216 218 220 226 230 233 234 233 234 238 243 251 261 267 267 261 260 260 259 264 271 274 278 280 282 281 276 273 270 267 267 265 265 264 263 264 264 265 266 265 265 266 265 263 263 262 262 262 262 260 257 255 253 251 248 242 238 243 245 240 237 241 243 244 245 247 249 254 256 252 239 225 224 223 224 231 230 218 210 207 205 201 201 203 204
222 224 226 231 236 240 242 241 241 244 246 253 261 266 262 256 254 256 258 262 266 270 273 275 279 281 277 273 270 267 266 265 264 264 264 264 264 264 264 264 264 265 265 264 263 262 261 261 262 261 259 257 255 254 251 244 238 238 241 240 237 234 235 238 241 242 241 243 251 254 246 229 218 211 213 222 228 225 214 208 205 202 201 202 202
228 230 231 236 241 245 249 249 250 252 252 255 259 260 257 254 255 258 260 262 265 268 270 272 276 278 275 271 269 267 266 264 263 262 263 263 263 263 263 263 263 264 264 264 264 263 262 262 262 261 259 258 258 256 252 246 242 237 235 239 238 231 230 234 236 237 241 245 248 252 252 242 223 212 213 216 225 230 222 212 208 204 201 200 201
237 238 239 242 246 251 257 258 256 256 254 254 256 255 255 257 259 261 262 264 266 269 271 274 275 274 272 270 269 268 266 264 262 261 261 261 261 262 262 263 263 264 264 263 263 263 263 262 261 260 259 257 256 256 252 247 245 241 234 235 236 229 226 229 232 233 237 243 248 251 252 248 237 220 208 208 221 226 218 214 212 204 200 199 201
245 247 248 251 255 259 261 261 257 254 252 252 254 256 258 260 262 263 263 266 270 272 271 272 273 272 270 269 268 267 265 263 262 260 260 261 261 262 263 263 264 265 265 265 264 263 263 262 261 260 259 257 256 255 253 250 248 247 241 233 232 231 225 220 225 231 232 233 242 249 251 248 243 232 210 203 212 213 208 212 213 205 200 199 203
252 256 258 259 261 261 260 258 256 254 255 256 259 261 263 263 264 265 267 269 271 272 272 272 272 271 269 268 267 266 265 263 261 260 260 261 262 264 265 266 267 268 267 268 267 264 262 261 261 260 258 258 257 255 254 252 250 249 247 242 239 239 230 219 220 227 228 226 232 239 246 245 239 236 225 210 210 207 201 207 210 206 204 203 208
262 263 264 265 264 262 259 258 257 257 259 262 264 266 266 267 268 268 270 272 272 274 275 274 273 271 270 269 268 268 267 265 264 263 262 261 262 264 267 268 269 269 269 268 268 266 264 262 261 261 258 256 256 255 254 253 251 250 249 247 244 243 238 228 221 221 223 229 231 229 235 239 236 236 233 221 216 210 200 200 201 202 207 206 207
265 265 267 266 263 262 262 262 262 262 264 267 269 270 270 270 271 273 274 276 277 278 277 275 274 273 272 271 270 270 269 268 267 266 265 265 265 264 266 269 270 269 269 268 268 266 265 264 262 261 259 256 255 255 254 253 253 252 251 249 247 246 245 240 234 228 224 225 228 227 230 234 233 233 234 229 218 205 195 195 195 197 207 209 204
271 270 269 268 267 268 270 270 270 270 271 273 274 275 275 274 276 278 279 281 281 279 277 276 275 274 273 272 272 271 272 271 270 269 267 267 266 264 264 266 268 268 267 267 267 266 264 264 262 261 260 258 255 254 253 253 253 252 251 250 249 248 247 243 240 238 232 227 228 230 232 234 232 231 233 234 225 208 197 197 197 199 208 214 210
278 276 275 274 274 275 276 274 275 277 277 278 278 278 279 280 281 282 282 282 281 278 277 276 275 274 273 273 273 272 272 272 271 270 268 266 264 263 262 264 266 267 267 266 266 265 263 262 262 261 260 258 255 252 251 251 251 250 247 245 244 245 245 243 241 241 237 233 233 236 236 235 235 233 233 233 230 219 207 200 200 202 205 212 212
282 283 282 281 280 281 281 281 281 282 282 281 282 282 282 283 284 284 283 282 280 279 278 277 276 275 274 273 273 273 273 273 272 271 269 266 265 263 262 264 267 267 268 267 266 265 263 262 262 262 260 259 256 253 251 250 250 250 246 242 241 240 239 238 238 238 236 233 234 238 238 236 236 237 236 233 228 226 221 210 201 201 204 212 216
291 291 288 287 287 287 287 287 285 285 285 284 284 284 284 285 285 285 284 282 281 280 279 278 277 277 276 275 275 275 275 274 273 271 270 268 266 264 262 265 268 267 268 268 266 265 262 259 259 259 259 258 256 253 252 251 252 252 248 245 245 243 240 238 237 235 234 232 233 236 238 238 238 238 238 236 231 233 238 225 195 193 200 209 212
296 295 292 292 292 291 291 291 289 288 287 286 285 285 285 285 284 283 283 282 281 280 279 279 279 278 277 276 275 276 276 275 273 271 271 270 267 263 262 265 266 265 266 266 264 263 260 257 256 256 256 257 256 254 252 251 250 251 249 248 248 247 247 245 242 238 237 237 237 238 238 238 240 240 240 242 239 236 240 232 202 200 204 206 209
298 297 296 295 294 293 292 290 288 288 287 286 286 286 285 284 283 283 282 281 281 281 281 280 279 278 277 276 276 276 275 274 272 270 269 269 268 265 262 264 264 264 268 267 263 260 261 259 257 255 254 256 256 254 252 249 247 247 248 249 250 250 250 248 246 243 241 240 241 241 240 239 239 240 240 242 241 236 235 231 213 204 205 208 208
300 299 297 296 295 293 291 288 287 288 288 288 287 287 286 285 284 283 282 281 281 281 281 280 280 280 278 277 276 275 274 273 272 271 270 270 270 265 261 261 262 266 270 268 263 264 265 262 257 253 254 257 256 254 251 249 247 245 245 247 248 249 249 247 247 245 239 236 238 239 240 239 239 240 240 241 243 239 234 233 223 206 203 207 205
300 298 296 294 293 292 290 289 289 289 289 289 288 287 287 286 286 285 284 284 284 284 283 283 282 281 280 278 277 274 273 273 273 273 272 271 271 267 263 261 263 269 270 266 263 267 266 262 259 257 256 257 257 254 253 251 249 246 245 244 243 245 247 246 245 245 241 239 240 238 237 236 236 239 240 242 244 243 238 236 230 217 210 206 205
298 295 294 293 292 291 291 291 291 290 289 289 289 288 288 288 289 288 287 287 287 286 285 283 282 280 279 278 277 276 275 276 276 276 273 271 272 270 267 264 265 269 271 266 264 267 265 263 264 260 256 256 257 257 256 253 249 246 244 244 243 246 251 250 246 246 247 246 246 242 237 235 234 235 237 237 239 242 241 236 229 223 216 209 206
297 296 295 293 292 292 291 291 292 292 291 292 291 291 291 291 290 289 288 287 286 284 283 282 280 280 280 279 279 279 277 276 275 273 271 269 270 269 268 267 267 268 269 267 265 267 268 267 265 262 260 260 259 259 258 253 249 246 244 244 246 247 251 252 249 250 249 246 246 245 242 239 232 228 230 233 237 240 239 234 228 226 225 220 216
299 297 295 294 294 293 293 293 295 295 295 296 296 295 294 291 289 287 285 284 283 282 281 280 280 282 282 282 282 280 276 274 272 272 273 272 272 272 271 270 269 267 265 265 265 268 270 269 266 265 264 263 259 257 255 251 248 246 244 245 246 247 249 251 251 252 251 249 247 245 243 241 237 233 234 237 238 237 235 234 232 232 232 230 228
300 298 298 297 296 295 295 295 297 297 297 297 296 294 292 289 287 286 284 283 283 282 282 283 284 285 285 284 283 280 277 277 276 278 281 281 281 280 277 274 272 270 268 267 267 269 269 266 264 264 264 263 260 255 250 247 246 246 247 247 247 246 247 247 247 249 251 251 248 244 241 238 235 234 236 235 234 233 232 232 232 231 232 231 228
302 301 300 299 298 298 297 297 297 297 297 297 295 293 292 290 288 286 284 283 283 283 285 286 285 285 286 285 285 286 287 288 289 291 294 294 291 288 284 281 279 276 272 269 269 271 269 265 261 260 261 262 260 251 243 244 247 248 249 249 246 242 241 242 245 246 245 244 245 243 238 229 219 219 222 220 219 222 222 220 220 221 221 217 216
303 301 301 300 300 300 299 298 298 298 297 296 293 290 289 287 286 285 285 284 284 285 286 286 285 285 284 285 290 294 296 296 297 298 300 300 297 293 292 290 287 283 278 273 272 272 272 268 262 258 256 256 255 251 247 247 249 251 251 248 243 237 236 239 242 241 239 241 242 236 216 194 185 186 192 196 194 190 192 195 194 186 179 180 175
303 302 303 303 302 302 301 299 299 298 296 294 292 289 288 286 285 285 285 286 286 285 286 287 288 287 288 293 298 299 297 297 299 300 302 304 301 298 295 291 288 286 281 276 273 272 274 271 261 254 251 250 251 252 251 249 250 252 254 253 247 240 238 239 239 239 241 238 228 206 182 163 145 137 139 138 129 124 145 163 146 122 124 132 112
304 303 304 305 304 302 300 298 298 297 296 295 293 291 290 288 285 285 285 284 284 287 290 291 290 293 297 301 302 300 297 297 299 302 305 304 301 298 295 291 287 281 275 271 272 276 283 281 262 248 245 243 244 247 250 250 250 249 249 252 250 242 238 237 235 234 229 208 174 157 151 139 126 119 114 112 113 119 134 141 133 124 123 117 100
304 303 303 304 302 301 301 301 300 298 296 294 292 290 288 285 284 285 284 283 284 288 290 290 292 297 301 300 299 299 297 297 300 304 305 303 300 299 296 291 286 277 269 267 269 274 282 282 258 234 229 229 231 238 242 242 235 221 216 220 206 195 200 201 186 161 139 128 125 122 116 112 111 110 106 103 105 114 120 122 123 123 121 113 105
305 303 302 302 301 303 304 303 300 297 293 292 291 292 290 287 286 284 284 285 286 286 288 293 299 304 304 299 299 300 298 300 306 308 307 305 305 304 300 296 290 282 274 270 266 266 272 270 246 226 221 220 219 220 222 211 167 128 118 121 129 137 135 125 120 120 121 121 121 119 114 109 105 105 103 101 101 102 103 105 107 105 104 103 99
306 305 304 303 305 307 305 302 300 297 295 293 292 293 295 296 297 293 288 289 290 291 299 316 327 328 321 313 312 312 310 311 313 312 310 311 312 310 307 301 293 284 276 266 251 242 245 247 238 226 220 214 194 171 159 141 123 117 115 115 116 115 113 116 120 123 122 120 118 117 115 113 111 110 109 107 107 105 102 101 101 99 98 100 99
306 305 303 303 307 307 303 303 304 303 302 303 301 301 302 303 305 305 307 313 317 324 345 353 347 342 337 332 330 328 325 323 320 316 317 318 316 317 318 310 294 276 253 226 216 217 217 213 184 125 103 96 100 107 108 104 102 102 103 103 105 108 110 113 116 115 112 113 115 114 113 114 114 112 111 111 111 111 109 107 106 103 100 98 97
306 303 301 304 307 305 304 307 308 306 307 309 305 302 304 306 313 331 356 353 340 346 9 9 1 355 354 356 355 348 343 342 340 336 339 342 339 349 8 16 10 275 198 188 176 131 105 95 88 88 88 87 87 91 94 95 94 92 90 90 92 99 107 110 109 106 106 109 111 109 109 112 113 110 109 110 110 112 112 110 110 108 105 102 100
307 305 306 308 308 305 305 308 306 302 303 307 307 311 323 338 355 2 356 345 344 359 17 17 17 17 14 14 15 15 18 24 23 23 32 40 46 55 58 58 59 68 87 93 83 76 77 78 80 84 87 87 89 91 93 96 96 94 91 90 88 86 92 99 101 103 106 108 105 101 102 107 108 107 106 105 103 101 101 101 103 102 100 99 98
311 310 309 308 306 304 302 304 305 306 313 325 332 344 359 12 19 14 3 359 2 7 11 16 21 26 27 26 28 34 41 47 51 56 59 59 62 68 68 63 60 63 70 75 77 77 77 78 81 85 86 86 89 92 93 94 95 93 91 90 88 85 85 89 91 92 95 96 95 93 91 89 92 94 94 93 90 88 88 91 94 95 96 97 96
315 313 311 310 310 306 304 311 320 330 342 351 358 6 14 23 29 28 25 25 24 24 24 24 26 32 37 36 36 42 49 55 58 61 62 62 64 67 67 65 64 63 66 71 76 78 79 80 81 84 85 86 87 89 90 90 91 91 91 90 89 87 84 84 86 87 85 82 82 84 83 81 85 90 91 89 89 90 92 95 96 96 98 101 102
318 315 314 313 312 310 312 322 336 349 2 13 20 26 33 38 41 40 40 42 43 41 37 33 32 34 36 37 38 44 52 57 60 60 60 61 63 63 63 65 67 67 67 69 72 75 78 78 78 79 81 82 83 85 87 87 87 87 88 88 88 87 86 86 87 86 84 80 79 81 82 83 88 92 92 91 93 96 98 100 99 98 100 103 104
322 318 315 313 314 316 319 328 344 2 20 33 41 46 50 52 50 51 53 54 52 48 43 39 35 32 32 37 42 47 52 55 56 55 55 56 58 58 59 63 66 67 66 66 69 72 74 73 74 76 75 75 77 80 83 84 84 83 82 82 82 83 84 88 88 87 86 85 83 83 84 85 87 90 92 94 98 100 101 103 105 106 108 110 111
324 319 321 324 325 326 330 345 10 28 41 53 57 57 61 63 61 61 61 58 54 51 45 41 38 37 39 44 48 50 52 52 51 51 53 53 54 56 57 59 62 64 64 64 65 68 69 70 72 74 72 71 73 75 77 79 81 81 82 83 83 81 81 83 84 85 88 91 90 88 88 90 92 93 94 94 96 98 99 103 109 115 117 115 113
330 331 339 345 344 349 10 32 45 52 60 67 68 65 67 68 66 66 65 61 58 56 52 47 43 43 47 50 52 54 54 53 52 54 55 54 54 56 56 57 59 62 63 65 67 69 71 72 73 74 74 74 76 78 78 80 81 83 86 87 86 85 84 83 80 80 85 89 89 87 85 87 90 90 88 89 96 100 101 103 107 111 113 110 107
345 351 360 4 10 30 50 59 64 68 71 73 72 71 71 70 68 68 69 67 65 63 59 53 49 49 52 55 58 58 58 57 55 56 56 55 55 57 57 58 60 62 63 65 69 72 73 74 75 76 76 77 79 81 81 81 80 82 84 85 85 86 87 86 84 83 86 89 91 90 87 87 92 93 93 97 104 106 105 106 107 106 108 110 112
4 15 29 37 44 54 63 67 70 73 73 73 73 72 72 71 70 70 72 71 68 65 62 58 55 55 56 58 60 60 60 60 59 58 58 58 58 59 59 60 61 63 64 67 69 72 73 74 74 75 76 77 78 80 81 82 83 83 83 84 85 85 85 86 87 88 91 93 95 97 98 100 102 104 104 107 108 106 106 109 111 111 112 115 118
27 38 49 56 59 63 68 71 72 72 72 72 74 74 73 70 67 68 70 71 68 66 64 62 60 60 59 59 60 61 62 62 62 61 62 62 62 62 62 62 63 65 68 69 70 71 73 74 75 76 77 78 78 78 79 81 83 86 87 86 86 86 85 86 87 88 90 92 93 95 98 101 102 102 102 103 104 105 106 110 113 114 115 116 119
44 52 58 61 62 65 69 71 71 71 71 73 74 73 71 68 67 66 68 68 67 65 64 63 63 63 60 58 59 61 63 63 63 63 63 64 64 63 62 62 63 66 68 69 70 72 74 75 77 79 81 82 81 81 82 81 80 80 81 83 83 82 78 77 77 78 81 87 90 90 91 94 95 95 97 100 105 109 111 112 113 115 118 122 126
54 60 63 65 65 66 69 70 71 72 72 71 69 67 65 65 65 65 66 67 67 65 64 64 63 63 61 59 60 63 65 66 66 64 64 65 65 64 64 62 62 64 66 69 74 77 76 75 76 77 77 78 80 80 81 81 78 72 68 66 66 65 63 62 65 70 75 81 86 88 89 90 90 91 94 99 104 107 110 113 114 117 122 126 127
58 62 65 67 68 69 70 70 71 72 71 69 66 64 63 65 66 65 64 66 66 64 63 64 64 64 64 63 63 65 69 71 71 68 67 67 67 66 65 63 63 64 64 66 71 74 75 73 73 72 71 73 75 73 71 73 75 74 72 69 65 61 58 56 59 62 62 66 74 81 83 83 84 84 86 91 96 99 102 109 113 115 117 120 120
61 63 65 66 68 69 71 72 72 71 71 69 67 64 63 65 69 69 67 66 67 67 67 66 66 67 66 63 61 62 65 68 68 67 66 68 68 68 66 65 66 65 64 62 64 67 68 68 68 69 68 69 69 67 65 66 68 70 72 72 72 72 71 67 63 61 57 56 63 71 76 80 84 83 83 89 96 100 103 109 113 114 117 120 122
62 64 65 66 66 68 70 71 71 71 71 70 69 67 66 67 70 73 73 72 72 74 75 75 73 70 67 62 59 59 60 62 64 66 66 66 66 65 64 65 65 64 63 61 60 61 63 64 65 66 66 65 64 64 65 66 66 65 65 64 64 68 73 74 71 66 60 58 63 69 71 76 82 84 85 90 95 99 104 109 111 112 117 124 123
62 64 64 66 67 68 69 70 71 72 73 73 72 71 70 70 71 75 78 79 79 80 81 81 78 74 69 65 61 60 60 62 63 64 63 63 63 62 61 62 62 61 61 60 58 59 61 64 65 65 64 63 62 63 64 64 64 63 61 60 59 63 70 78 80 76 67 59 63 69 72 76 81 82 81 84 87 88 93 99 102 107 114 118 125
65 67 67 68 70 71 72 73 74 74 75 75 74 69 65 62 63 70 77 80 81 81 80 79 76 72 70 69 66 64 64 64 64 63 62 61 60 60 59 59 60 60 61 61 60 60 60 60 61 61 61 60 61 63 65 66 66 64 62 63 66 70 75 82 87 85 75 63 60 66 70 74 78 80 80 84 85 86 91 98 109 122 129 128 133
73 74 73 73 72 71 72 73 73 72 72 71 67 59 51 50 56 66 73 75 76 77 76 75 75 73 72 72 71 70 69 68 66 65 64 61 60 60 60 60 61 63 64 64 64 63 61 60 59 58 58 58 59 61 63 65 66 65 66 68 72 76 80 84 87 86 80 69 62 65 69 70 73 74 75 77 80 84 89 95 101 121 132 138 152